Other Public Products
Issued by NWS Grand Forks, ND

Home | Current Version | Previous Version | Text Only | Print | Product List | Glossary On
Versions: 1 2 3 4 5 6 7 8 9 10 11 12 13 14 15 16 17 18 19 20 21 22 23 24 25 26 27 28 29 30 31 32 33 34 35 36 37 38 39 40 41 42 43 44 45 46 47 48 49 50
000
FPUS83 KFGF 210331
OPUFGF
PRAIRIE TO PINES WEATHER ROUNDUP
NATIONAL WEATHER SERVICE EASTERN NORTH DAKOTA/GRAND FORKS ND
1000 PM CDT SUN MAY 20 2018

 **SATELLITE DATA USED TO AUGMENT SKY COVER AT AUTOMATED STATIONS**
 *****  WEATHER ACROSS EASTERN NORTH DAKOTA  *****

CITY           SKY/WX    TMP DP  RH WIND       PRES   REMARKS
GRAND FORKS    FAIR      57  41  55 SE7       30.11S
GRND FORKS AFB FAIR      60  35  40 S7        30.11S
GRND FORKS NWS   N/A     63  36  36 SE6       30.08S
BUXTON           N/A     62  35  36 SE3         N/A
DEVILS LAKE    FAIR      60  40  47 S6        30.12S
FARGO          FAIR      61  39  44 E5        30.12R
WAHPETON ARPT  FAIR      59  28  31 E6        30.13S
$$

 *****  WEATHER ACROSS CENTRAL AND WESTERN NORTH DAKOTA  *****

CITY           SKY/WX    TMP DP  RH WIND       PRES   REMARKS
JAMESTOWN      FAIR      55  42  61 E5        30.11S
BISMARCK       FAIR      51  42  71 SE6       30.10S
MINOT          FAIR      59  33  37 SE7       30.06S
MINOT AFB      FAIR      56  33  41 S7        30.04F
GARRISON         N/A     53  32  44 SE9       30.06F
WILLISTON      FAIR      64  34  32 SE8       30.01F
DICKINSON      FAIR      50  34  54 SE12      30.05S
HETTINGER      FAIR      51  35  54 SE8       30.09F
$$

 *****  OTHER OBSERVATIONS NORTHEAST NORTH DAKOTA  *****

CITY           SKY/WX    TMP DP  RH WIND       PRES   REMARKS
WALHALLA       FAIR      63  34  34 SW5       30.09R
LANGDON        FAIR      52  39  62 S12       30.12R
CAVALIER         N/A     59  37  44 SW6       30.09S
GRAFTON        FAIR      54  41  62 S10       30.12S
CANDO          FAIR      54  41  62 S8        30.12S
FORT TOTTEN      N/A     59  36  42 SE3       29.95S
ROLLA          FAIR      52  34  50 S5        30.10S
RUGBY          NOT AVBL
 ***** THE ABOVE OBSERVATIONS ARE NON NWS ARE NOT QUALITY
        CONTROLLED AND MAY MIS-REPORT RAIN FOR SNOW...
$$

 *****  OTHER OBSERVATIONS SOUTHEAST NORTH DAKOTA *****

CITY           SKY/WX    TMP DP  RH WIND       PRES   REMARKS
COOPERSTOWN    FAIR      55  36  47 SE5       30.14R
VALLEY CITY    FAIR      57  36  44 E7        30.14S
OAKES            N/A     55  36  47 E8        30.12S
GWINNER          N/A     55  34  44 CALM      30.12R
SHEYENNE NWR     N/A     56  36  46 E6        29.95S
BUFFALO          N/A     57  30  35 W6          N/A
WYNDMERE       NOT AVBL
 ***** THE ABOVE OBSERVATIONS ARE NON NWS ARE NOT QUALITY
       CONTROLLED AND MAY MIS-REPORT RAIN FOR SNOW...
$$

  *****  WEATHER ACROSS NORTHERN MINNESOTA  *****

CITY           SKY/WX    TMP DP  RH WIND       PRES   REMARKS
FLAG ISLAND    FAIR      55  46  71 S5        30.10S
WARROAD        FAIR      61  37  41 S3        30.13S
ROSEAU         FAIR      55  46  71 S5        30.12S
HALLOCK        FAIR      57  37  47 SE9       30.10S
THF RVR FALLS  FAIR      57  33  40 S3        30.15R
HALSTAD        NOT AVBL
FOSSTON        FAIR      52  19  28 SE5       30.16R
BAUDETTE       FAIR      60  37  42 S6        30.14R
WASKISH        FAIR      45  39  81 CALM      30.15S
CROOKSTON      FAIR      57  36  44 SE6       30.13S
$$
  *****  WEATHER ACROSS CENTRAL AND WEST MINNESOTA  *****

CITY           SKY/WX    TMP DP  RH WIND       PRES   REMARKS
BEMIDJI        FAIR      49  35  57 CALM      30.15S
PARK RAPIDS    FAIR      60  31  33 E3        30.15R
WADENA         FAIR      54  36  50 CALM      30.15S
DETROIT LAKES  FAIR      61  39  44 CALM      30.16R
MOORHEAD       FAIR      61  30  31 CALM      30.14R
FERGUS FALLS   FAIR      61  34  36 E3        30.10R
ELBOW LAKE     FAIR      59  36  42 SE6       30.14R
MORRIS MN      FAIR      55  27  33 E8        30.12R
STAPLES        FAIR      54  34  47 CALM      30.16R
WHEATON        FAIR      55  27  33 E6        30.14R
$$
  *****  WEATHER ELSEWHERE ACROSS MINNESOTA  *****

CITY           SKY/WX    TMP DP  RH WIND       PRES   REMARKS
DULUTH         FAIR      53  31  42 CALM      30.17R
INTRNTL FALLS  FAIR      49  42  77 CALM      30.13R
ELY            FAIR      50  37  62 CALM      30.16S
CLOQUET        FAIR      48  27  43 CALM      30.17S
BRAINERD       FAIR      53  38  56 CALM      30.16R
HIBBING        FAIR      45  35  68 NW3       30.16R
ALEXANDRIA     FAIR      59  31  34 E6        30.15S
SAINT CLOUD    FAIR      56  33  42 E5        30.14S
MINNEAPOLIS    MOCLDY    66  32  28 E9        30.13S
$$

  *****  WEATHER ACROSS SOUTH DAKOTA  *****

CITY           SKY/WX    TMP DP  RH WIND       PRES   REMARKS
SIOUX FALLS    CLOUDY    55  53  93 CALM      30.10R
BROOKINGS      CLOUDY    59  50  72 S3        30.11R
WATERTOWN      MOCLDY    61  34  36 SE5       30.10R
HURON          CLOUDY    59  39  47 SW5       30.10R
SISSETON         N/A     58  32  37 CALM      30.10S
ABERDEEN       CLOUDY    64  33  31 E3        30.10F
MITCHELL       CLOUDY    59  49  69 SE5       30.11R
PIERRE         MOCLDY    55  36  48 SE7       30.09S
MOBRIDGE       FAIR      59  37  44 E9        30.07S
RAPID CITY     FAIR      50  41  71 S6        30.10R
$$

  *****  SOME WEATHER IN NEARBY STATES *****

CITY           SKY/WX    TMP DP  RH WIND       PRES   REMARKS
GLASGOW MT     FAIR      63  42  46 SE12      29.91S
GREAT FALLS MT FAIR      60  50  69 W6        29.86S
CHEYENNE WY    FAIR      47  43  86 S12       30.13F
SCOTTSBLUFF NE FAIR      54  46  74 E8        30.10F
OMAHA NE       CLOUDY    58  56  93 N7        30.06R FOG
DES MOINES IA  CLOUDY    62  56  80 E6        30.08R
DAVENPORT IA   CLOUDY    58  53  84 E14       30.14R
CHICAGO IL     CLOUDY    48  42  80 N8        30.19R
EAU CLAIRE WI  FAIR      56  35  45 CALM      30.15R
LA CROSSE WI   FAIR      57  52  83 SE3       30.16R
$$

  *****  SOME NATIONAL WEATHER *****

CITY           SKY/WX    TMP DP  RH WIND       PRES   REMARKS
LA GUARDIA NY  FAIR      70  54  56 NW14      30.05R
RALEIGH NC     CLOUDY    74  72  93 W5        30.12R
ATLANTA GA     CLOUDY    70  69  97 S5        30.18R
NEW ORLEANS LA FAIR      81  73  76 SE7       30.04R
OKLAHOMA CITY  FAIR      63  60  90 E5        30.04R
ALBUQUERQUE NM FAIR      72  41  32 E25G37    30.00R
SALT LAKE CITY MOCLDY    64  49  57 N7        29.90S
LOS ANGELES CA MOCLDY    61  53  75 SW9       29.89S
BOISE ID       LGT RAIN  61  54  77 NW6       29.89R
SEATTLE WA     MOCLDY    63  50  62 N9        30.03S
$$

*** WEATHER ACROSS MANITOBA...SASKATCHEWAN AND ONTARIO ***
                ***ONTARIO***

CITY           SKY/WX    TMP DP  RH WIND       PRES   REMARKS
GERALDTON      CLEAR     59  36  41 W8        30.04R
THUNDER BAY    CLEAR     52  37  58 NE3       30.12R
SIOUX LOOKOUT  PTCLDY    59  32  36 S3        30.09R
TORONTO        PTCLDY    52  36  54 N8        30.17R
BIG TROUT LK   LGT RAIN  48  30  49 NE7       30.01F
PICKLE LAKE    NOT AVBL
DRYDEN         CLEAR     61  32  33 SW8       30.11S
KENORA         PTCLDY    61  34  36 S8        30.11S
$$
                *** MANITOBA***

CITY           SKY/WX    TMP DP  RH WIND       PRES   REMARKS
BRANDON        CLEAR     61  25  25 SW7       30.04F
DAUPHIN        CLEAR     63  30  29 S9        30.00R
ISLAND LAKE    PTCLDY    55  43  62 E3        29.98R
PILOT MOUND      N/A     54  34  47 S10         N/A
THE PAS        CLEAR     63  36  36 CALM      29.91S
THOMPSON       PTCLDY    52  37  58 E5        29.93S
WINNIPEG       CLEAR     66  34  30 S10       30.06R
LYNN LAKE      CLEAR     54  41  62 E9        29.88R
CHURCHILL      PTCLDY    23  18  80 NE8       30.12R WCI  14
GILLAM         CLOUDY    43  34  70 E5        30.01F
$$
                ***SASKATCHEWAN***

CITY           SKY/WX    TMP DP  RH WIND       PRES   REMARKS
ESTEVAN        PTCLDY    59  30  33 SE10      30.02S
KINDERSLEY     PTCLDY    66  37  34 S7        29.77F
LLOYDMINSTER   PTCLDY    66  43  42 S5        29.77S
PRINCE ALBERT  PTCLDY    68  32  26 S6        29.87F
REGINA         PTCLDY    63  27  25 S13       29.96R
YORKTON        CLEAR     66  30  26 S6        29.98S



USA.gov is the U.S. government's official web portal to all federal, state and local government web resources and services.